This is the latest recevied weather packets stored in our database for station/object N0QV. If no packets are shown the sender has not sent any weather packets the latest 10 day(s).
| Time | Temp. | Humidity | Pressure | Rain* | Wind** | Luminosity | Snow |
|---|---|---|---|---|---|---|---|
| 1777539268 | 6.67° C | 61% | 1018.5 hPa | 0 mm | - | 0 W/m² | - |
| 1777538965 | 7.22° C | 60% | 1018.3 hPa | 0 mm | - | 0 W/m² | - |
| 1777538660 | 7.22° C | 59% | 1018.4 hPa | 0 mm | - | 0 W/m² | - |
| 1777538355 | 7.22° C | 57% | 1018.1 hPa | 0 mm | - | 0 W/m² | - |
| 1777538051 | 7.22° C | 57% | 1018.1 hPa | 0 mm | - | 0 W/m² | - |
| 1777537747 | 7.22° C | 57% | 1018.3 hPa | 0 mm | - | 0 W/m² | - |
| 1777537444 | 7.22° C | 59% | 1018.2 hPa | 0 mm | - | 0 W/m² | - |
| 1777537140 | 7.22° C | 60% | 1018.2 hPa | 0 mm | - | 0 W/m² | - |
| 1777536836 | 7.22° C | 59% | 1017.9 hPa | 0 mm | - | 0 W/m² | - |
| 1777536534 | 6.67° C | 64% | 1018.2 hPa | 0 mm | - | 0 W/m² | - |
| 1777536230 | 7.22° C | 62% | 1018 hPa | 0 mm | - | 0 W/m² | - |
| 1777535926 | 7.22° C | 61% | 1018.2 hPa | 0 mm | - | 0 W/m² | - |
| 1777535623 | 7.78° C | 57% | 1018.3 hPa | 0 mm | - | 0 W/m² | - |
| 1777535319 | 7.78° C | 54% | 1018.5 hPa | 0 mm | - | 0 W/m² | - |
| 1777535017 | 7.78° C | 54% | 1018.4 hPa | 0 mm | - | 0 W/m² | - |
| 1777534713 | 7.78° C | 54% | 1018.4 hPa | 0 mm | - | 0 W/m² | - |
| 1777534410 | 7.78° C | 53% | 1018.3 hPa | 0 mm | - | 0 W/m² | - |
| 1777534108 | 7.78° C | 53% | 1018.3 hPa | 0 mm | - | 0 W/m² | - |
| 1777533805 | 7.78° C | 53% | 1018.3 hPa | 0 mm | - | 0 W/m² | - |
| 1777533502 | 7.78° C | 53% | 1018.4 hPa | 0 mm | - | 0 W/m² | - |
| 1777533197 | 7.78° C | 53% | 1018.3 hPa | 0 mm | - | 0 W/m² | - |
| 1777532895 | 7.78° C | 53% | 1018.2 hPa | 0 mm | - | 0 W/m² | - |
| 1777532591 | 7.78° C | 53% | 1018.5 hPa | 0 mm | - | 0 W/m² | - |
| 1777532288 | 7.78° C | 54% | 1018.4 hPa | 0 mm | - | 0 W/m² | - |
| 1777531984 | 7.78° C | 56% | 1018.5 hPa | 0 mm | - | 0 W/m² | - |
* Rain latest hour (hover to see other rain measurements)
** Current wind speed in m/s (hover to see current wind gust speed)